Location: Godzisko
(49.9648°N, 19.4576°E)
Time: 06:58:53
(UTC+00:00)

SJ 16-02 - Pass Details

Date: 20 April 2021
Orbit: 605 x 617 km, 75.0° (Epoch: 05 May)

Event Time Altitude Azimuth Distance (km) Brightness Sun altitude
Exits shadow 01:47:37 20° 273° (W) 1,454 2.9 -16.2°
Maximum altitude 01:49:16 24° 305° (NW) 1,282 2.8 -16.0°
Drops below altitude 10° 01:52:55 10° 1° (N) 1,991 4.5 -15.6°
Sets 01:55:32 0° 15° (NNE) 2,903 5.8 -15.3°
